Theta_e
318 318 318 317 317 316 316 316 316 317 317 317 317 316 318 318 319 322 323 321 339 342 353 356 356 353 348 353 350 349 355 355 357 355 358 353 353 348 345 348 348 347 346 349 349
315 315 316 316 316 315 315 315 316 317 317 317 317 316 317 318 325 322 321 316 333 346 353 348 350 349 353 353 353 354 354 355 352 354 356 354 352 349 351 350 350 348 347 348 349
314 314 314 314 314 314 314 314 316 317 317 317 317 316 317 318 329 328 320 317 339 348 346 345 345 351 353 352 351 350 355 354 354 354 352 354 353 350 351 351 347 350 349 348 348
312 312 312 312 313 313 313 314 316 316 317 317 317 316 317 329 332 341 318 324 342 348 346 345 347 348 347 350 350 352 351 351 353 353 353 354 352 352 349 350 342 343 345 347 347
312 312 312 313 313 313 314 315 315 316 317 317 317 316 323 326 328 342 321 341 348 346 342 342 343 348 347 347 350 349 351 351 349 351 352 352 354 353 351 348 343 343 345 345 344
314 314 314 314 314 314 314 315 316 317 317 318 317 317 327 325 332 347 345 349 345 344 341 337 339 338 345 344 346 346 349 352 353 350 352 354 354 352 351 349 348 347 348 347 346
315 315 316 316 315 315 315 315 317 318 320 320 317 320 323 323 340 346 349 346 344 342 339 337 336 338 341 344 342 345 350 352 353 355 355 353 358 356 351 351 350 350 350 348 348
315 315 316 316 316 316 315 316 320 324 320 317 317 327 323 328 343 345 344 344 344 343 336 335 332 338 342 341 338 344 347 342 349 353 354 353 360 354 351 353 353 350 350 350 350
315 316 316 317 317 316 316 321 320 318 317 317 327 326 325 327 344 344 341 337 341 343 341 338 335 340 340 340 339 339 334 335 345 351 353 355 357 355 352 353 354 351 349 350 351
315 316 317 317 317 316 317 322 324 325 326 328 328 325 325 324 328 341 339 334 333 337 334 332 337 343 343 340 338 333 331 333 337 349 352 355 355 354 352 354 354 353 350 350 349
316 318 318 318 317 316 320 325 328 329 330 330 327 322 325 327 326 332 336 333 332 332 335 338 342 345 342 336 333 329 330 333 345 337 350 354 355 355 353 353 354 354 351 348 349
317 318 320 319 317 318 319 328 327 325 327 326 327 326 325 326 327 326 331 332 334 333 337 337 341 339 334 331 328 328 330 334 346 346 350 354 355 355 354 353 353 353 351 347 347
318 318 320 318 318 319 324 326 323 323 328 325 325 325 327 327 328 326 330 330 333 335 336 338 337 330 331 331 328 328 328 332 339 349 351 351 358 355 354 352 352 351 351 348 344
316 317 319 316 319 321 326 323 322 323 330 327 326 326 326 328 328 326 328 330 334 334 334 334 334 333 334 333 328 329 327 332 343 344 339 345 350 359 355 356 353 352 350 348 345
318 320 320 316 320 326 324 322 322 323 328 327 325 325 327 329 328 327 326 329 334 333 334 333 328 327 330 331 327 328 328 332 338 336 337 348 348 356 354 357 356 353 351 349 346
322 321 318 318 318 322 321 322 322 332 331 328 326 326 327 327 326 327 326 330 332 332 331 330 327 327 328 328 327 327 327 330 334 334 340 338 344 346 354 353 355 353 351 351 348
321 323 318 317 325 320 322 325 333 331 326 327 327 326 327 327 327 327 328 330 329 327 327 327 327 327 326 327 328 326 328 330 332 337 341 337 342 345 347 348 350 353 352 351 350
323 322 321 321 321 321 325 329 332 328 327 326 327 327 328 327 328 327 328 328 327 326 326 326 325 325 326 327 330 329 329 329 333 335 336 339 344 346 345 346 346 348 351 351 351
323 323 326 323 321 323 331 332 333 330 327 328 328 328 328 327 327 327 329 329 329 328 328 326 326 325 325 326 327 331 330 329 328 329 332 338 342 347 351 351 347 348 350 352 351
329 330 328 323 322 324 333 331 333 330 328 326 332 333 332 330 327 331 334 337 337 335 329 328 328 327 326 326 325 328 327 327 328 331 334 340 340 341 349 352 353 350 351 352 351
330 332 327 323 323 334 334 334 333 333 331 332 333 334 334 334 329 332 334 336 335 335 332 328 328 329 330 335 330 327 330 328 328 328 330 330 338 344 347 349 352 352 352 353 353
332 335 328 324 335 336 335 333 326 333 334 334 334 335 337 337 337 337 336 337 333 332 328 328 328 329 336 335 337 335 333 331 331 336 331 330 335 347 350 351 353 354 352 353 354
335 335 332 330 335 336 335 334 333 334 334 335 335 334 335 337 339 337 336 334 333 334 332 327 329 333 333 333 335 336 335 331 330 330 333 332 338 339 351 353 356 358 359 353 354
336 337 335 334 332 335 336 336 335 331 334 334 336 335 335 336 336 337 336 334 333 334 330 329 331 331 333 334 334 337 337 333 331 331 334 333 335 347 355 361 363 365 364 354 353
335 336 333 337 335 333 334 334 335 336 334 335 335 335 336 336 335 336 334 334 334 333 336 334 335 335 334 334 335 335 336 336 335 335 333 335 338 352 360 364 364 363 367 370 363
335 337 334 334 333 334 331 335 333 333 333 335 336 333 335 337 337 337 336 335 336 335 335 334 337 337 336 336 337 336 338 338 338 338 335 338 343 352 357 359 355 355 358 361 362
325 327 333 328 334 335 334 333 332 330 331 331 331 332 332 334 333 333 333 332 332 333 333 334 336 337 336 338 338 338 336 337 341 342 341 339 353 352 355 357 353 354 356 355 357
Wind_Speed
16 17 18 19 19 19 18 18 18 16 16 16 16 16 14 13 10 4 6 2 9 23 18 13 10 7 5 2 3 1 5 6 6 6 10 11 12 6 8 11 4 4 11 23 25
17 17 18 19 20 20 19 19 18 16 16 15 15 15 14 13 5 9 5 7 12 24 18 12 8 8 4 3 2 3 3 5 4 5 12 10 11 12 12 10 11 15 19 25 24
18 18 19 19 20 22 21 20 18 17 16 15 14 12 12 9 5 5 5 11 18 20 9 4 3 6 0 3 3 2 3 3 6 6 7 11 12 9 11 10 14 21 21 22 22
18 18 19 20 21 22 22 20 18 17 16 14 12 10 10 3 4 4 8 14 21 13 9 6 4 4 2 5 4 5 8 3 7 4 5 10 11 8 7 12 17 19 21 21 18
19 18 18 20 21 22 22 21 19 18 17 14 10 6 2 7 5 4 12 18 16 11 7 2 4 5 10 3 2 1 7 6 4 6 7 10 8 8 9 15 19 19 19 17 15
19 19 20 20 21 23 22 21 20 20 18 14 6 2 5 7 4 7 15 19 10 9 5 3 4 7 3 3 4 2 2 9 9 8 9 11 10 10 11 15 20 19 18 17 15
20 20 21 19 21 21 21 21 21 20 14 6 4 3 6 5 2 10 15 13 8 6 3 1 5 7 8 3 4 0 4 7 10 11 8 11 10 9 16 15 20 20 18 17 16
21 21 22 21 20 20 19 21 16 8 4 5 7 3 1 1 5 12 11 8 7 5 2 2 3 7 5 6 4 3 7 2 9 11 8 10 9 9 16 17 18 21 19 17 17
23 22 22 21 19 18 17 11 4 7 7 9 3 6 6 5 7 13 11 6 8 6 5 6 8 5 6 9 5 3 9 7 7 9 6 11 8 14 16 16 17 19 19 18 17
23 23 23 20 17 16 12 1 3 5 3 1 3 5 6 6 10 13 10 7 4 8 7 7 6 7 7 6 9 11 12 8 5 9 8 9 7 12 16 16 18 18 19 19 18
25 24 21 17 14 14 2 4 5 6 8 5 3 3 7 8 11 10 12 9 6 8 10 6 9 6 9 9 9 11 10 6 7 3 7 8 6 9 14 16 16 17 18 20 19
24 22 19 14 10 3 1 4 5 5 3 4 7 6 4 1 8 9 12 11 8 13 6 8 11 1 4 8 8 7 8 6 4 3 7 4 8 11 14 16 17 18 18 19 20
23 20 16 9 1 2 3 3 3 3 5 5 3 4 5 8 5 13 17 10 11 12 12 13 7 2 5 7 9 3 9 8 8 3 4 5 8 13 15 13 15 16 18 18 20
21 16 10 2 3 2 4 1 9 5 6 6 7 6 8 5 6 6 16 8 6 12 6 9 2 9 12 10 8 7 6 5 1 7 8 2 2 10 14 17 18 18 18 18 19
16 11 4 5 2 4 2 5 1 4 5 4 8 6 5 6 9 6 10 8 6 9 7 4 4 7 12 8 5 8 6 6 5 10 8 7 6 7 10 14 19 20 20 19 18
10 5 2 3 2 1 4 4 4 6 5 5 5 10 13 7 5 9 11 6 4 4 9 12 2 6 6 4 7 10 10 9 7 8 5 6 8 11 6 9 16 20 21 20 20
5 4 6 6 3 2 4 4 6 2 3 7 8 13 14 10 7 8 12 13 7 8 11 10 14 13 7 11 9 9 13 6 3 5 5 3 6 10 5 2 6 18 21 21 20
7 11 6 2 2 4 6 6 4 4 7 5 5 10 9 7 3 3 10 9 7 6 5 4 10 15 11 14 7 6 9 8 3 2 3 2 2 8 8 3 4 10 18 21 21
5 3 1 2 0 2 6 1 5 4 3 8 10 11 10 8 2 6 6 2 2 8 6 3 3 6 3 3 5 4 10 6 8 5 7 3 8 13 13 13 8 8 13 19 21
2 3 4 2 3 7 4 9 6 6 4 4 5 4 8 7 10 9 6 4 2 4 7 1 4 2 8 4 4 6 3 6 5 2 5 6 2 9 10 12 11 6 10 14 17
4 3 5 3 3 4 7 6 7 9 4 7 4 6 6 6 3 5 3 5 5 2 5 7 6 8 6 3 4 6 8 1 2 5 3 4 6 7 10 8 12 9 1 11 14
5 0 5 2 2 1 7 4 4 7 6 6 7 8 8 3 3 3 3 5 9 3 4 7 5 2 9 6 2 2 5 8 7 8 2 5 4 9 12 10 10 10 6 2 8
2 3 4 5 4 7 6 7 11 9 10 5 5 8 5 3 2 2 1 4 8 5 0 6 7 7 8 8 5 3 3 2 4 2 2 7 6 7 14 12 11 12 11 5 4
3 1 4 5 3 3 4 6 6 8 11 7 5 2 3 4 4 3 3 3 3 10 5 3 4 8 4 4 5 7 4 1 7 7 5 7 9 17 16 13 13 13 13 9 2
4 4 3 3 6 6 4 3 5 4 4 7 3 7 5 1 2 1 2 2 4 3 1 4 4 4 2 2 2 3 4 3 6 7 8 11 10 11 11 12 14 15 18 15 12
4 3 1 3 1 1 2 4 6 5 6 3 3 4 5 2 5 6 7 2 3 6 6 3 2 5 5 3 4 7 3 4 3 2 4 4 4 8 9 11 12 12 12 13 15
6 2 5 1 1 3 4 4 5 6 3 5 6 7 4 4 8 10 9 10 11 8 8 7 5 6 12 5 7 10 11 6 3 1 6 6 8 5 7 10 9 10 13 14 14
Wind_Direction
345 342 339 336 336 337 339 338 339 336 337 337 337 333 333 337 318 289 241 186 173 162 156 158 187 194 200 249 243 216 219 132 126 156 133 142 127 113 113 134 132 120 139 135 148
339 338 336 333 331 331 333 333 332 331 330 331 333 332 333 334 299 246 242 190 174 159 164 173 179 181 203 172 207 269 326 58 74 65 149 147 139 131 144 110 115 119 112 139 150
337 335 332 329 327 326 327 329 327 326 326 327 328 329 333 333 265 91 205 172 168 158 172 182 177 248 191 222 121 108 88 82 102 90 155 147 140 150 155 119 141 139 141 150 159
333 331 328 326 324 324 325 325 323 322 320 320 321 323 327 268 172 46 156 158 163 166 174 186 216 252 81 80 111 126 123 177 146 137 166 153 149 138 155 122 138 140 149 155 166
331 329 327 324 321 322 323 321 320 316 313 311 309 317 315 217 65 31 149 151 158 173 193 206 338 319 45 34 157 327 158 171 139 169 158 145 162 142 128 136 142 146 154 159 167
334 331 327 324 320 320 321 318 316 312 307 300 284 278 258 210 30 139 149 155 164 186 184 241 4 355 314 356 318 17 197 176 165 171 166 175 155 164 143 146 149 158 166 162 166
333 330 329 327 320 321 318 317 315 309 301 275 192 164 252 47 87 147 156 171 173 206 198 255 313 309 337 306 355 339 198 189 186 175 170 173 165 197 154 159 160 167 169 166 168
330 329 327 326 321 321 319 318 317 320 321 144 147 199 50 14 146 156 163 168 174 172 161 286 310 283 274 324 223 268 219 96 139 179 158 210 125 165 162 171 173 172 173 174 176
328 326 324 323 320 320 322 323 40 70 95 116 145 245 138 134 174 174 179 187 178 180 219 257 270 291 260 282 186 175 6 24 128 191 164 218 129 162 174 180 176 178 175 179 181
325 323 322 322 321 319 324 169 85 86 102 229 254 221 162 163 149 166 181 170 186 165 177 222 230 273 235 328 9 335 337 345 17 154 197 194 137 153 180 185 178 182 181 186 185
323 321 320 319 320 319 315 265 218 184 215 310 55 8 128 123 145 179 175 184 165 216 211 199 246 241 7 335 321 317 320 333 44 121 192 201 186 170 174 189 180 185 186 189 192
324 322 318 318 316 304 108 262 39 355 262 219 250 267 227 226 164 158 178 199 205 208 188 204 238 324 322 298 303 315 278 60 118 118 209 156 221 186 188 196 190 188 191 192 193
327 322 316 324 291 158 236 106 357 299 251 146 188 223 175 204 200 165 188 204 208 210 214 248 87 90 271 300 299 139 7 9 1 133 196 279 212 192 192 203 200 200 195 198 196
328 323 325 38 141 185 173 191 320 207 232 121 167 145 173 226 172 145 204 204 201 223 199 252 269 260 264 267 286 285 10 340 259 281 11 293 29 177 188 201 202 200 204 198 198
328 322 329 177 356 209 104 318 297 214 183 127 134 127 163 227 121 155 182 209 212 191 230 124 223 221 239 256 300 343 343 314 290 280 278 139 252 104 183 205 208 207 200 201 197
338 339 119 93 187 233 312 309 219 230 91 126 131 172 174 187 138 138 181 226 338 232 228 272 114 270 267 276 249 301 275 240 234 266 239 51 292 127 156 218 206 204 205 197 198
13 48 136 150 92 294 299 220 222 7 187 130 146 173 181 163 134 185 184 194 211 211 211 215 227 232 241 259 220 235 252 277 259 198 40 51 265 57 66 164 200 198 197 199 196
92 94 89 137 267 305 229 233 88 68 60 112 140 151 182 175 147 149 179 191 218 267 277 255 177 197 182 233 314 235 316 299 274 296 60 149 16 69 18 8 212 184 191 191 197
125 93 81 350 22 257 244 144 41 36 37 132 166 154 141 161 232 173 185 264 296 219 263 226 140 131 197 227 257 172 241 349 291 213 261 65 112 93 47 48 81 163 177 187 194
279 233 50 324 255 240 233 82 69 22 2 220 113 302 146 148 176 183 187 40 294 234 272 87 201 126 123 177 88 286 18 216 203 231 286 126 211 60 17 21 28 116 171 183 197
236 241 30 335 221 232 57 61 48 42 13 8 71 105 92 126 190 169 140 95 1 286 243 256 270 144 180 335 80 165 200 205 353 312 309 260 98 37 20 12 9 15 164 183 191
290 206 11 314 184 56 61 17 279 27 41 72 49 54 56 78 115 143 135 29 12 321 199 216 283 193 94 112 51 324 44 276 279 148 58 315 53 70 33 5 355 5 13 322 202
3 26 32 288 100 97 117 92 48 38 36 42 67 47 49 67 129 83 111 50 14 26 106 170 241 155 183 169 184 235 74 353 317 278 139 313 91 92 32 20 6 355 344 337 225
293 175 80 60 34 35 73 49 102 44 56 55 48 129 165 79 49 116 105 76 12 29 335 275 272 287 299 53 103 176 180 348 303 292 25 307 356 35 19 18 21 8 4 5 7
356 61 3 47 52 50 65 21 60 53 40 22 75 38 7 312 190 94 16 334 150 20 247 285 258 268 6 76 211 190 201 207 289 353 305 353 333 30 28 32 29 18 17 28 46
9 337 144 62 48 7 117 50 34 33 351 51 22 5 340 3 8 333 342 354 12 325 321 315 249 247 212 206 235 238 215 255 304 320 269 292 93 48 54 65 40 32 44 43 27
20 4 292 119 28 275 49 47 30 349 105 30 338 302 255 32 335 315 301 294 291 306 315 288 279 234 252 192 244 245 234 230 340 302 319 329 49 57 55 53 60 53 57 54 53